Topeka Forbes, KS

11:56 AM CDT on April 28, 2017 (GMT -0500)
Forbes

Weather History for KFOE - October, 2012

Change the Weather History Date:

Saturday, October 13, 2012

  Actual Average Record
Temperature  
Mean Temperature 64 °F -  
Max Temperature 70 °F 70 °F 91 °F (1975)
Min Temperature 57 °F 46 °F 25 °F (2006)
Degree Days  
Heating Degree Days 2    
Growing Degree Days 14 (Base 50)    
Moisture  
Dew Point 63 °F    
Average Humidity 92    
Maximum Humidity 100    
Minimum Humidity 82    
Precipitation  
Precipitation 0.76 in - - ()
Sea Level Pressure  
Sea Level Pressure 29.80 in    
Wind  
Wind Speed 12 mph (South)    
Max Wind Speed 29 mph    
Max Gust Speed 41 mph    
Visibility 8 miles    
Events Rain , Thunderstorm    
Averages and records for this station are not official NWS values.
T = Trace of Precipitation, MM = Missing Value Source: NWS Daily Summary

Daily Weather History Graph

Daily Weather History Graph

Search for Another Location

Airport or City:

Trip Planner

Search our weather history database for the weather conditions in past years. The results will help you decide how hot, cold, wet, or windy it might be!

Date:

Astronomy

Oct. 13, 2012 Rise Set
Actual Time 7:30 AM CDT 6:46 PM CDT
Civil Twilight 7:03 AM CDT 7:13 PM CDT
Nautical Twilight 6:32 AM CDT 7:43 PM CDT
Astronomical Twilight 6:01 AM CDT 8:14 PM CDT
Moon 5:22 AM CDT (10/13) 5:30 PM CDT (10/13)
Length of Visible Light 12h 09m
Length of Day
11h 15m
Waning Crescent, 5% of the Moon is Illuminated
Oct 13
Waning Crescent
Oct 15
New
Oct 21
First Quarter
Oct 29
Full
Nov 6
Last Quarter

Hourly Weather History & Observations

Time (CDT) Temp. Dew Point Humidity Pressure Visibility Wind Dir Wind Speed Gust Speed Precip Events Conditions
12:01 AM 57.2 °F 57.2 °F 100% 30.04 in 5.0 mi SE 8.1 mph - N/A   Overcast
12:53 AM 60.1 °F 59.0 °F 96% 30.00 in 9.0 mi SE 10.4 mph - 0.01 in   Overcast
1:53 AM 61.0 °F 59.0 °F 93% 29.96 in 10.0 mi SSE 11.5 mph - N/A   Overcast
2:04 AM 62.6 °F 60.8 °F 94% 29.97 in 10.0 mi SSE 12.7 mph 19.6 mph N/A   Overcast
2:17 AM 62.6 °F 60.8 °F 94% 29.96 in 10.0 mi SSE 13.8 mph - N/A   Overcast
2:25 AM 62.6 °F 60.8 °F 94% 29.96 in 10.0 mi SSE 11.5 mph - N/A   Mostly Cloudy
2:53 AM 63.0 °F 61.0 °F 93% 29.93 in 9.0 mi SSE 13.8 mph 20.7 mph N/A   Mostly Cloudy
3:53 AM 64.0 °F 62.1 °F 93% 29.91 in 7.0 mi South 13.8 mph - N/A   Overcast
4:53 AM 66.0 °F 64.0 °F 93% 29.92 in 7.0 mi South 13.8 mph - 0.00 in Rain Light Rain
5:53 AM 66.9 °F 64.0 °F 90% 29.90 in 7.0 mi South 13.8 mph - 0.00 in   Overcast
6:53 AM 66.9 °F 64.0 °F 90% 29.89 in 6.0 mi South 11.5 mph - 0.00 in   Overcast
7:53 AM 66.9 °F 64.0 °F 90% 29.89 in 6.0 mi South 12.7 mph - N/A   Overcast
8:46 AM 64.4 °F 60.8 °F 88% 29.93 in 2.5 mi West 16.1 mph 29.9 mph 0.05 in Rain Heavy Rain
8:53 AM 64.0 °F 60.1 °F 87% 29.91 in 5.0 mi West 9.2 mph - 0.05 in Rain Light Rain
9:00 AM 64.4 °F 60.8 °F 88% 29.91 in 10.0 mi WSW 3.5 mph - 0.00 in Rain Light Rain
9:18 AM 62.6 °F 60.8 °F 94% 29.91 in 10.0 mi SE 8.1 mph - 0.00 in Rain , Thunderstorm Light Thunderstorms and Rain
9:38 AM 62.6 °F 60.8 °F 94% 29.93 in 1.8 mi South 6.9 mph - 0.09 in Rain , Thunderstorm Heavy Thunderstorms and Rain
9:47 AM 62.6 °F 60.8 °F 94% 29.92 in 3.0 mi SSE 10.4 mph - 0.11 in Rain , Thunderstorm Light Thunderstorms and Rain
9:53 AM 63.0 °F 61.0 °F 93% 29.93 in 5.0 mi South 9.2 mph - 0.11 in Rain , Thunderstorm Thunderstorms and Rain
10:53 AM 64.0 °F 63.0 °F 96% 29.85 in 10.0 mi SE 12.7 mph - 0.07 in Thunderstorm Thunderstorm
11:23 AM 66.2 °F 64.4 °F 94% 29.82 in 8.0 mi SSE 17.3 mph - N/A   Mostly Cloudy
11:53 AM 66.9 °F 64.9 °F 93% 29.82 in 7.0 mi South 11.5 mph 20.7 mph N/A   Overcast
12:27 PM 66.2 °F 64.4 °F 94% 29.84 in 5.0 mi South 13.8 mph - 0.00 in Rain Light Rain
12:53 PM 68.0 °F 64.9 °F 90% 29.80 in 10.0 mi South 9.2 mph 20.7 mph 0.00 in   Overcast
1:53 PM 68.0 °F 64.9 °F 90% 29.76 in 8.0 mi South 11.5 mph 21.9 mph 0.02 in Rain Light Rain
2:48 PM 66.2 °F 64.4 °F 94% 29.74 in 8.0 mi South 11.5 mph - 0.01 in Rain Light Rain
3:05 PM 66.2 °F 64.4 °F 94% 29.73 in 4.0 mi SSE 15.0 mph 33.4 mph 0.04 in Rain Light Rain
3:33 PM 66.2 °F 64.4 °F 94% 29.74 in 3.0 mi South 12.7 mph 21.9 mph 0.27 in Rain Light Rain
3:53 PM 66.9 °F 64.9 °F 93% 29.71 in 9.0 mi SSE 9.2 mph - 0.29 in Rain Light Rain
4:20 PM 66.2 °F 66.2 °F 100% 29.72 in 10.0 mi SSE 10.4 mph - 0.00 in Rain Light Rain
4:53 PM 68.0 °F 66.0 °F 93% 29.69 in 10.0 mi South 10.4 mph - 0.00 in   Overcast
5:05 PM 68.0 °F 66.2 °F 94% 29.69 in 9.0 mi SSE 13.8 mph - N/A   Overcast
5:43 PM 69.8 °F 66.2 °F 88% 29.68 in 10.0 mi SSE 17.3 mph - N/A   Overcast
5:53 PM 69.1 °F 66.0 °F 90% 29.66 in 10.0 mi SSE 15.0 mph 25.3 mph N/A   Mostly Cloudy
6:04 PM 69.8 °F 66.2 °F 88% 29.67 in 10.0 mi SSE 12.7 mph - N/A   Overcast
6:20 PM 69.8 °F 66.2 °F 88% 29.67 in 10.0 mi South 13.8 mph - N/A   Mostly Cloudy
7:05 PM 69.8 °F 66.2 °F 88% 29.60 in 10.0 mi SE 17.3 mph - 0.00 in Rain Light Rain
7:31 PM 69.8 °F 66.2 °F 88% 29.62 in 9.0 mi SSE 12.7 mph 20.7 mph 0.00 in   Mostly Cloudy
7:53 PM 70.0 °F 66.9 °F 90% 29.60 in 9.0 mi SSE 12.7 mph 21.9 mph 0.00 in   Overcast
8:40 PM 69.8 °F 66.2 °F 88% 29.65 in 9.0 mi SW 28.8 mph 41.4 mph 0.01 in   Overcast
8:58 PM 60.8 °F 57.2 °F 88% 29.62 in 3.0 mi SSW 15.0 mph 21.9 mph 0.01 in Rain Rain
9:18 PM 60.8 °F 59.0 °F 94% 29.66 in 8.0 mi South 16.1 mph - 0.03 in Rain , Thunderstorm Rain
9:49 PM 62.6 °F 57.2 °F 82% 29.66 in 3.0 mi SW 6.9 mph - 0.20 in Rain Heavy Rain
9:53 PM 63.0 °F 57.9 °F 84% 29.64 in 4.0 mi West 9.2 mph - 0.21 in Rain Rain
10:25 PM 64.4 °F 60.8 °F 88% 29.65 in 10.0 mi SW 9.2 mph - 0.00 in   Mostly Cloudy
10:53 PM 64.9 °F 62.1 °F 90% 29.64 in 10.0 mi South 11.5 mph - 0.00 in   Overcast